Find OneWeb SL0698

NORAD ID: 61604 Int'l Des: 2024-188 Owner: ONEWEBE Country: UK Constellation: oneweb operational
LEOCIRCULARPOLARONEWEB_TYPE

实时位置

正在加载3D地球...

关于 OneWeb SL0698

正在加载描述...

即将过境

Passes for default location (London). Set your location on the main map for personalized predictions.

高度历史

Loading altitude history...

两行轨道根数

1 61604U 24188L 26124.48460080 .00000547 00000-0 15084-2 0 9991
2 61604 87.8923 29.7727 0002264 47.3596 312.7723 13.11419977 78742
Epoch: May 4, 2026 • Age: 18 hours

当前状态

高度 1234.9 km
速度 7.24 km/s
星下点 -40.52°S, 90.13°W
发射日期 Oct 20, 2024
运行时间 1.5 years
类型 internet

技术详情

分类 Payload
质量 148.00 kg
干质量 140.00 kg
总质量 148.00 kg
长度 1.30 m
直径 1.00 m
跨度 5.00 m
形状 Trapezoid+2 pan
制造商 ONEWUS
平台类型 ARROW
阶段状态 In Orbit
所有者/国家 ONEWEBE/UK

Most Searched